Regional Weather Roundup
Issued by NWS

Home | Current Version | Previous Version | Graphics & Text | Print | Product List | Glossary Off
Versions: 1 2 3 4 5 6 7 8 9 10 11 12 13 14 15 16 17 18 19 20 21 22 23 24 25 26 27 28 29 30 31 32 33 34 35 36 37 38 39 40 41 42 43 44 45 46 47 48 49 50

000
ASUS43 KMPX 140810
RWRMN
WEATHER ROUNDUP FOR MINNESOTA
NATIONAL WEATHER SERVICE TWIN CITIES/CHANHASSEN MN
300 AM CDT MON JUL 14 2014


NOTE: "FAIR" INDICATES FEW OR NO CLOUDS BELOW 12,000 FEET WITH NO
SIGNIFICANT WEATHER AND/OR OBSTRUCTIONS TO VISIBILITY. N/A MEANS
CURRENT SKY AND/OR WEATHER CONDITIONS ARE NOT AVAILABLE.

MNZ060>063-068>070-140900-
   Twin Cities Metro

CITY           SKY/WX    TMP DP  RH WIND       PRES   REMARKS
TWIN CITIES    MOCLDY    64  50  60 NW8       29.89S
ST PAUL        CLOUDY    63  50  62 NW12      29.88S
CRYSTAL        MOCLDY    62  50  64 NW7       29.88S
BLAINE         MOCLDY    61  52  72 NW6       29.89S
LAKEVILLE      CLEAR     57  50  77 CALM      29.89S
EDEN PRAIRIE   CLOUDY    63  50  62 NW7       29.88F
SOUTH ST PAUL  MOCLDY    64  49  59 NW7       29.88S
LAKE ELMO      MOCLDY    61  52  72 NW3       29.89S
$$
MNZ001>005-007-008-013>017-022>024-027-028-140900-
   Northwest Minnesota

CITY           SKY/WX    TMP DP  RH WIND       PRES   REMARKS
BEMIDJI        CLOUDY    49  47  93 W14       29.89S
HALLOCK        MOCLDY    48  46  93 N15       29.99R
ROSEAU         CLOUDY    48  43  81 NW14      29.93R
WARROAD        CLOUDY    48  45  87 NW12      29.91R
THIEF RVR FALL PTCLDY    48  45  87 NW17G24   29.95R
CROOKSTON      CLEAR     48  48 100 N17       29.97R
FOSSTON        CLOUDY    48  46  93 NW12G18   29.93S
MOORHEAD       CLOUDY    55  54  94 N13       29.98R
PARK RAPIDS    LGT RAIN  52  49  89 NW13      29.90R
$$
MNZ006-009>011-018-025>026-140900-
   North Central Minnesota

CITY           SKY/WX    TMP DP  RH WIND       PRES   REMARKS
BAUDETTE       LGT RAIN  51  49  92 NW16G26   29.85R FOG
FLAG ISLAND    CLOUDY    54  50  87 N22G30    29.87R
INTL FALLS     RAIN      49  48  97 W8        29.79S
WASKISH        CLOUDY    50  46  87 W17G24    29.86S
BIG FORK       CLOUDY    50  46  87 W6        29.84S
LONGVILLE      DRIZZLE   52  48  87 W9        29.87R
GRAND RAPIDS   MOCLDY    52  46  82 NW12G18   29.84S
CRANE LAKE     RAIN      48  48 100 CALM      29.80S
ORR            MIX PCPN  50  46  87 W6        29.78S
COOK           RAIN      48  48 100 W7        29.81S
$$
MNZ012-019>021-037-140900-
   Northeast Minnesota

CITY           SKY/WX    TMP DP  RH WIND       PRES   REMARKS
DULUTH         PTCLDY    50  47  89 W7        29.82F
ELY            LGT RAIN  52  48  87 SW5       29.79F
HIBBING        LGT RAIN  53  48  83 W9G17     29.82S
EVELETH        DRIZZLE   52  50  93 W5        29.82F
DULUTH HARBOR  CLOUDY    55  52  88 SW9       29.84F
TWO HARBORS    PTCLDY    48  45  87 CALM      29.80F
SILVER BAY     PTCLDY    46  46 100 CALM      29.79F
GRAND MARAIS     N/A     47  45  93 W5        29.78F
G MARAIS ARPRT PTCLDY    46  45  93 CALM      29.80S
$$
MNZ029>031-032-039>041-046>048-054>057-064-140900-
   West Central Minnesota

CITY           SKY/WX    TMP DP  RH WIND       PRES   REMARKS
FERGUS FALLS   CLOUDY    59  45  58 NW13G22   29.95S
WHEATON        CLOUDY    61  46  59 NW9       29.98S
MORRIS         CLOUDY    59  50  72 NW7       29.94S
ALEXANDRIA     CLOUDY    60  46  59 NW14      29.94S
ELBOW LAKE     FAIR      57  46  67 NW12      29.95R
WADENA         MOCLDY    55  46  71 NW12G20   29.91S
GLENWOOD       CLOUDY    59  48  67 W10G16    29.93F
APPLETON       CLOUDY    59  54  82 W5        29.95S
BENSON         CLOUDY    57  52  82 NW6       29.95S
ORTONVILLE     CLOUDY    61  50  67 NW8       29.97R
MADISON        PTCLDY    57  52  82 NW6       29.97R
WILLMAR        CLOUDY    61  50  67 W5        29.95S
$$
MNZ033>034-036-042>043-049>051-058-059-140900-
   Central Minnesota

CITY           SKY/WX    TMP DP  RH WIND       PRES   REMARKS
ST CLOUD       CLOUDY    57  51  80 CALM      29.89F
SAUK CENTRE    CLOUDY    60  47  61 W12       29.91F
PAYNESVILLE    MOCLDY    51  48  89 SW6       29.92F
AITKIN         PTCLDY    57  48  72 CALM      29.85F
PINE RIVER     CLOUDY    55  48  76 W6        29.91S
BRAINERD       MOCLDY    63  47  55 W14       29.88F
STAPLES        CLOUDY    55  46  71 NW10G16   29.90S
LONG PRAIRIE   CLOUDY    59  46  63 W6        29.91F
LITTLE FALLS   CLOUDY    57  48  72 W6        29.89F
LITCHFIELD     CLOUDY    63  52  67 W6        29.92F
BUFFALO        CLEAR     59  50  71 W3        29.91S
MAPLE LAKE     CLEAR     57  51  81 CALM      29.91S
$$
MNZ037-044-045-052-053-140900-
   East Central Minnesota

CITY           SKY/WX    TMP DP  RH WIND       PRES   REMARKS
PRINCETON      CLOUDY    57  52  82 CALM      29.89F
MORA           CLOUDY    55  48  76 W3        29.89F
CAMBRIDGE      CLOUDY    61  48  63 CALM      29.87S
RUSH CITY      CLOUDY    57  51  79 CALM      29.88S
MOOSE LAKE     CLOUDY    50  48  93 SW3       29.84F
HINCKLEY       CLOUDY    54  52  94 SW3       29.88S
CLOQUET        PTCLDY    52  48  87 SW6       29.84F
MCGREGOR       PTCLDY    52  50  93 W8        29.86F
$$
MNZ071>073-080-081-089-090-097-098-140900-
   Southwest Minnesota

CITY           SKY/WX    TMP DP  RH WIND       PRES   REMARKS
MONTEVIDEO     MOCLDY    57  50  77 W3        29.96S
GRANITE FALLS  MOCLDY    54  51  89 W5        29.97S
CANBY          PTCLDY    54  50  86 W6        29.99S
MARSHALL       CLEAR     54  46  76 W9        29.96S
REDWOOD FALLS  CLEAR     56  51  84 NW8       29.94S
OLIVIA         PTCLDY    55  50  82 NW3       29.94S
PIPESTONE      CLEAR     57  48  72 NW7       29.99F
WINDOM         CLEAR     54  48  82 W7        29.96F
WORTHINGTON    CLEAR     54  48  82 W9        29.99S
JACKSON        CLEAR     54  48  82 W5        29.97S
TRACY          CLEAR     58  48  70 W7        29.97S
SLAYTON        CLEAR     55  47  75 CALM      29.99S
$$
MNZ065>067-074>077-082>085-091>093-140900-
   South Central Minnesota

CITY           SKY/WX    TMP DP  RH WIND       PRES   REMARKS
MANKATO        CLEAR     57  46  67 W5        29.92S
NEW ULM        CLEAR     55  54  94 W7        29.93S
ST JAMES       CLEAR     55  50  82 W7        29.95S
FAIRMONT       CLEAR     55  46  71 W5        29.94S
GLENCOE        PTCLDY    60  50  70 W6        29.91S
FARIBAULT      CLEAR     57  48  72 W5        29.91S
OWATONNA       CLEAR     54  48  82 W6        29.91S
WASECA         CLEAR     50  45  81 CALM      29.93S
ALBERT LEA     CLEAR     55  52  88 CALM      29.92S
$$
MNZ078>079-086>088-094>096-140900-
   Southeast Minnesota

CITY           SKY/WX    TMP DP  RH WIND       PRES   REMARKS
ROCHESTER      CLEAR     55  49  80 W8        29.91F
RED WING       CLEAR     54  52  94 CALM      29.87S
STANTON        CLEAR     56  49  77 CALM      29.88S
DODGE CENTER   PTCLDY    54  50  87 W7        29.90F
WINONA         CLEAR     57  55  94 CALM      29.88S
AUSTIN         CLEAR     55  50  82 W1        29.91F
PRESTON        CLEAR     58  50  73 W8        29.91S
$$
ABBREVIATIONS USED IN REMARKS
   TC - TEMPERATURES IN CELSIUS
  WCI - WIND CHILL INDEX
   HX - HEAT INDEX
  VSB - VISIBILITY
$$


USA.gov is the U.S. government's official web portal to all federal, state and local government web resources and services.